Location: Malvern Link
(52.1333°N, 2.3000°W)
Time: 11:13:55
(UTC+00:00)

ARGOS - Pass Details

Date: 18 September 2020
Orbit: 821 x 834 km, 98.4° (Epoch: 25 October)

Event Time Altitude Azimuth Distance (km) Brightness Sun altitude
Rises 19:15:35 0° 163° (SSE) 3,343 6.0 -9.8°
Reaches altitude 10° 19:17:55 10° 163° (SSE) 2,415 5.3 -10.2°
Maximum altitude 19:23:16 89° 247° (WSW) 832 3.2 -11.0°
Drops below altitude 10° 19:28:42 10° 345° (NNW) 2,439 6.1 -11.8°
Sets 19:31:04 0° 345° (NNW) 3,379 6.8 -12.1°
